Flag for U.S.A. Weather past 2 weeks in Santa Barbara, California, U.S.A.

Now
59 °F

More clouds than sun.


Feels Like: 58 °F
Forecast: 54 / 73 °F
Wind: 6 mph from Northeast

Location: Santa Barbara Municipal Airport

Current Time: May 28, 2015 at 8:23:56 AM

Latest Report: May 28, 2015 at 7:53 AM


Visibility: 9 mi

Pressure: 29.98 "Hg

Humidity: 84%

Dew point: 54 °F

Location of Santa BarbaraLocation

Historic Weather in Santa Barbara — Graph

°F

Santa Barbara temperature yesterday

Maximum temperature yesterday: 67 °F (at 2:53 PM)
Minimum temperature yesterday: 55 °F (at 5:53 AM)
Average temperature yesterday: 61 °F

Past Weeks' High & Low Weather Summary

 TemperatureHumidityPressure
High74 °F (May 18, 5:53 PM)93% (May 15, 1:53 AM)30.09 "Hg (May 15, 1:53 AM)
Low49 °F (May 18, 5:53 AM)35% (May 18, 5:53 PM)29.81 "Hg (May 15, 4:53 PM)
Average60 °F69%29.96 "Hg
* Reported May 13 6:53 AM — May 28 6:53 AM, Santa Barbara, Weather by CustomWeather, © 2015

Note: Actual official high and low records may vary slightly from our data, if they occured in-between our weather recording intervals... More about our weather records

Advertising

Santa Barbara weather history for previous 24 hours

 ConditionsComfort  
Time TempWeatherWind HumidityBarometerVisibility
6:53 AM
Thu, May 28
56 °FFog.6 mph93%29.98 "Hg6 mi
5:53 AM53 °FPassing clouds.3 mph86%29.96 "Hg10 mi
4:53 AM53 °FClear.3 mph89%29.94 "Hg10 mi
3:53 AM53 °FClear.5 mph89%29.94 "Hg10 mi
2:53 AM55 °FClear.3 mph90%29.95 "Hg10 mi
1:53 AM56 °FClear.5 mph87%29.96 "Hg10 mi
12:53 AM58 °FClear.7 mph87%29.96 "Hg10 mi
11:53 PM
Wed, May 27
58 °FClear.3 mph87%29.97 "Hg10 mi
10:53 PM58 °FClear.No wind87%29.97 "Hg10 mi
9:53 PM59 °FClear.6 mph87%29.96 "Hg10 mi
8:53 PM60 °FSunny.7 mph83%29.94 "Hg10 mi
7:53 PM60 °FSunny.7 mph80%29.93 "Hg10 mi
6:53 PM64 °FSunny.6 mph65%29.94 "Hg10 mi
5:53 PM67 °FSunny.6 mph63%29.94 "Hg10 mi
4:53 PM66 °FSunny.9 mph63%29.96 "Hg10 mi
3:53 PM67 °FSunny.12 mph59%29.96 "Hg10 mi
2:53 PM67 °FSunny.13 mph57%29.98 "Hg10 mi
1:53 PM66 °FScattered clouds.9 mph63%29.99 "Hg10 mi
12:53 PM65 °FOvercast.6 mph68%30.00 "Hg10 mi
11:53 AM63 °FOvercast.6 mph73%30.01 "Hg10 mi
10:53 AM63 °FOvercast.8 mph73%30.01 "Hg10 mi
9:53 AM61 °FOvercast.8 mph78%30.00 "Hg10 mi
8:53 AM61 °FBroken clouds.8 mph75%30.01 "Hg10 mi
Weather by CustomWeather, © 2015

See weather overviewHow to use our weather pages